[[{"header":{"parameterUnit":"m.s-1","parameterCategory":1,"la1":30.2992,"la2":30.254,"lo1":-89.0895,"lo2":-89.0443,"dy":0.0025,"dx":0.0025,"nx":19,"ny":19,"refTime":"2026-04-07T03:00:00:Z","depth":0,"parameterNumber":2,"parameterNumberName":"U-component_of_WINDS"},"data":[0,0,0,-3.3178,-3.3183,-3.3376,-3.3376,-3.3658,-3.3661,0,0,0,0,0,0,0,0,0,0,0,-3.3141,-3.3143,-3.3178,-3.3183,-3.3376,-3.3376,-3.3657,-3.3661,0,0,0,0,0,0,0,0,0,0,0,-3.314,-3.3143,-3.3146,-3.3184,-3.3375,-3.3376,-3.3657,-3.3499,0,0,0,0,0,0,0,0,0,0,-3.3306,-3.3291,-3.3142,-3.3146,-3.3185,-3.3375,-3.3376,-3.3491,-3.3509,-3.3585,0,-3.3656,0,-3.3663,-3.3682,-3.3683,0,0,0,-3.3169,-3.3276,-3.3309,-3.3146,-3.3187,-3.3375,-3.3285,-3.3501,-3.3521,-3.3609,-3.366,-3.367,-3.3668,-3.3684,-3.3685,-3.4169,-3.4171,0,0,-3.3158,-3.3187,-3.3296,-3.3324,-3.3294,-3.3279,-3.3291,-3.3512,-3.3571,-3.3661,-3.3676,-3.3672,-3.3686,-3.3688,-3.4166,-3.4169,0,0,0,-3.3137,-3.318,-3.3207,-3.3313,-3.3345,-3.3285,-3.3299,-3.3561,-3.3567,-3.3678,-3.3676,-3.3687,-3.3691,-3.4163,-3.4167,-3.4343,0,0,0,-3.313,-3.3167,-3.3204,-3.3223,-3.3342,-3.3455,-3.3343,-3.3552,-3.3576,-3.3674,-3.3688,-3.3694,-3.4159,-3.4165,-3.4331,-3.4423,0,0,0,-3.3122,-3.3166,-3.3201,-3.3224,-3.3308,-3.3451,-3.3469,-3.3556,-3.3575,-3.3683,-3.3695,-3.4157,-3.4164,-3.432,-3.4406,-3.4563,0,0,0,-3.3121,-3.3353,-3.3204,-3.3461,-3.3306,-3.3555,-3.3468,-3.3652,-3.3765,-3.3689,-3.416,-3.4167,-3.4317,-3.4395,-3.4552,-3.4705,-3.4769,0,0,-3.343,-3.3391,-3.354,-3.3412,-3.3696,-3.3524,-3.3833,-3.391,-3.3894,-3.4078,-3.409,-3.4335,-3.4404,-3.456,-3.511,-3.5161,0,0,0,-3.3648,-3.3756,-3.3825,-3.3933,-3.3995,-3.4059,-3.4083,-3.4112,-3.4267,-3.3994,-3.4429,-3.447,-3.4561,-3.4633,-3.4677,-3.4755,-3.4199,-3.4198,-3.4198,-3.413,-3.4096,-3.4342,-3.4332,-3.4437,-3.446,-3.4544,-3.4586,-3.4521,-3.4624,-3.4682,-3.5019,-3.5104,-3.5137,-3.5219,-3.4753,-3.4754,-3.4755,-3.4755,-3.4585,-3.4735,-3.464,-3.4846,-3.4809,-3.4981,-3.5012,-3.496,-3.5117,-3.4972,-3.5051,-3.4902,-3.5194,-3.5265,-3.4768,-3.4766,-3.4764,-3.4763,-3.4762,-3.4903,-3.4969,-3.4997,-3.5151,-3.5273,-3.5252,-3.5408,-3.5366,-3.5329,-3.5405,-3.5464,-3.5461,-3.5459,-3.5434,-3.5436,-3.5437,-3.5438,-3.5439,-3.544,-3.5225,-3.525,-3.5386,-3.5471,-3.5536,-3.5615,-3.5639,-3.5702,-3.5762,-3.572,-3.572,-3.5649,-3.5226,-3.5125,-3.5458,-3.5455,-3.5452,-3.5451,-3.5449,-3.5711,-3.5594,-3.5804,-3.5869,-3.5966,-3.6092,-3.6034,-3.6166,-3.6211,-3.6291,-3.6199,-3.5891,-3.585,-3.5815,-3.5732,-3.6202,-3.6202,-3.6202,-3.6202,-3.5985,-3.5957,-3.6164,-3.6271,-3.637,-3.6339,-3.6581,-3.6601,-3.6604,-3.6631,-3.6555,-3.6437,-3.6403,-3.6383,-3.6335,-3.6257,-3.6851,-3.6851,-3.6852,-3.6285,-3.6265,-3.648,-3.6478,-3.655,-3.6614,-3.6841,-3.697,-3.6947,-3.6877,-3.6652,-3.6625,-3.6435,-3.6374,-3.6308,-3.6235,-3.609,0,0]},{"header":{"parameterUnit":"m.s-1","parameterCategory":1,"la1":30.2992,"la2":30.254,"lo1":-89.0895,"lo2":-89.0443,"dy":0.0025,"dx":0.0025,"nx":19,"ny":19,"refTime":"2026-04-07T03:00:00:Z","depth":0,"parameterNumber":3,"parameterNumberName":"V-component_of_WINDS"},"data":[0,0,0,-5.1223,-5.1226,-5.1337,-5.1337,-5.1495,-5.1497,0,0,0,0,0,0,0,0,0,0,0,-5.1203,-5.1204,-5.1223,-5.1226,-5.1337,-5.1337,-5.1495,-5.1497,0,0,0,0,0,0,0,0,0,0,0,-5.1202,-5.1204,-5.1206,-5.1226,-5.1337,-5.1337,-5.1494,-5.1404,0,0,0,0,0,0,0,0,0,0,-5.1293,-5.1288,-5.1203,-5.1206,-5.1227,-5.1336,-5.1337,-5.14,-5.141,-5.1453,0,-5.1496,0,-5.1499,-5.1509,-5.1509,0,0,0,-5.1216,-5.1279,-5.1298,-5.1206,-5.1228,-5.1336,-5.1284,-5.1405,-5.1417,-5.1466,-5.1498,-5.1504,-5.1502,-5.151,-5.1511,-5.1794,-5.1795,0,0,-5.121,-5.1229,-5.129,-5.1306,-5.1293,-5.128,-5.1287,-5.1412,-5.1447,-5.1499,-5.1507,-5.1504,-5.1511,-5.1512,-5.1792,-5.1794,0,0,0,-5.1199,-5.1225,-5.124,-5.13,-5.1319,-5.1284,-5.1292,-5.1442,-5.1445,-5.1508,-5.1506,-5.1512,-5.1514,-5.179,-5.1793,-5.19,0,0,0,-5.1195,-5.1219,-5.1238,-5.1251,-5.1317,-5.1382,-5.1319,-5.1436,-5.145,-5.1505,-5.1512,-5.1516,-5.1788,-5.1791,-5.1892,-5.1947,0,0,0,-5.1191,-5.1218,-5.1239,-5.1252,-5.13,-5.138,-5.139,-5.1439,-5.1449,-5.1509,-5.1516,-5.1787,-5.1791,-5.1886,-5.1936,-5.2026,0,0,0,-5.1192,-5.1333,-5.1241,-5.1396,-5.13,-5.1446,-5.1389,-5.1497,-5.1561,-5.1513,-5.1788,-5.1792,-5.1884,-5.193,-5.2019,-5.2105,-5.2143,0,0,-5.138,-5.1356,-5.1446,-5.1367,-5.1535,-5.1428,-5.161,-5.165,-5.1638,-5.1742,-5.1748,-5.1895,-5.1936,-5.2025,-5.2348,-5.2379,0,0,0,-5.1511,-5.1576,-5.1616,-5.1679,-5.1714,-5.1747,-5.1757,-5.1772,-5.1859,-5.1696,-5.1951,-5.1975,-5.2026,-5.2066,-5.2092,-5.2134,-5.1812,-5.1811,-5.1811,-5.1805,-5.1781,-5.1927,-5.1917,-5.1978,-5.1986,-5.2033,-5.2053,-5.2012,-5.2072,-5.2103,-5.2302,-5.235,-5.2369,-5.2413,-5.2147,-5.2147,-5.2147,-5.2148,-5.2077,-5.2164,-5.2104,-5.2225,-5.2198,-5.2298,-5.231,-5.2277,-5.2364,-5.2278,-5.2322,-5.2229,-5.2403,-5.244,-5.2155,-5.2154,-5.2153,-5.2152,-5.2152,-5.2266,-5.2304,-5.2319,-5.2406,-5.2474,-5.2457,-5.2544,-5.2516,-5.2491,-5.2534,-5.2562,-5.2561,-5.2554,-5.255,-5.255,-5.2551,-5.2552,-5.2552,-5.2553,-5.2456,-5.247,-5.2547,-5.2594,-5.2629,-5.2672,-5.268,-5.2713,-5.2742,-5.2715,-5.2715,-5.2666,-5.2425,-5.2364,-5.2563,-5.2561,-5.256,-5.2559,-5.2558,-5.274,-5.2671,-5.2791,-5.2826,-5.2877,-5.2946,-5.2909,-5.2978,-5.3001,-5.3044,-5.2985,-5.2812,-5.2785,-5.2764,-5.2714,-5.2991,-5.2991,-5.2991,-5.2991,-5.2899,-5.2883,-5.2998,-5.3055,-5.3109,-5.3087,-5.3219,-5.3225,-5.3221,-5.3233,-5.3188,-5.3119,-5.31,-5.3084,-5.3057,-5.3009,-5.3355,-5.3356,-5.3356,-5.3072,-5.3059,-5.3179,-5.3174,-5.3211,-5.3243,-5.3366,-5.3432,-5.3412,-5.337,-5.3241,-5.3226,-5.3114,-5.3079,-5.3034,-5.2992,-5.2904,0,0]}]]